Regional Weather Roundup
Issued by NWS

Home | Current Version | Previous Version | Graphics & Text | Print | Product List | Glossary On
Versions: 1 2 3 4 5 6 7 8 9 10 11 12 13 14 15 16 17 18 19 20 21 22 23 24 25 26 27 28 29 30 31 32 33 34 35 36 37 38 39 40 41 42 43 44 45 46 47 48 49 50
434
ASUS44 KLIX 041401
RWRLA
LOUISIANA WEATHER ROUNDUP
NATIONAL WEATHER SERVICE NEW ORLEANS LA
800 AM CST WED MAR 04 2015

NOTE: "FAIR" INDICATES FEW OR NO CLOUDS BELOW 12,000 FEET WITH NO
      SIGNIFICANT WEATHER AND/OR OBSTRUCTIONS TO VISIBILITY.
      SKY/WX - SKY CONDITION AND SIGNIFICANT WEATHER.
      TMP - AIR TEMPERATURE.    DP   - DEWPOINT TEMPERATURE.
      RH  - RELATIVE HUMIDITY.  PRES - PRESSURE.
      HX  - HEAT INDEX.         WCI  - WIND CHILL INDEX.

*  THESE STATIONS ARE NOT NWS OR FAA STATIONS AND ARE NOT UNDER
   NWS QUALITY CONTROL.

LAZ040-048-061>063-065-066-069-041500-
SOUTHEAST LOUISIANA

CITY           SKY/WX    TMP DP  RH WIND       PRES   REMARKS
N.O. AUDUBON   NOT AVBL
N.O. INTL ARPT MOSUNNY   71  66  84 SE3       30.00R
N.O. LAKEFRONT PTSUNNY   68  63  84 SE5       30.02R
SLIDELL        CLOUDY    68  67  96 S3        30.01R
BATON ROUGE    PTSUNNY   70  67  90 SE8       29.99R
BOOTHVILLE     PTSUNNY   69  67  93 SE7       30.02R
BELLE CHASSE   PTSUNNY   70  66  87 S6        30.00R
BOGALUSA*        N/A     70  66  88 S6        30.03R
GALLIANO*      MOSUNNY   65  64  98 CALM      30.00S
NEW ROADS*     CLOUDY    68  67  98 E5        29.98R FOG
GONZALES*      NOT AVBL
HAMMOND*       NOT AVBL
HOUMA*         MOSUNNY   70  70 100 SE3       29.99R HAZE
PORT FOURCHON* PTSUNNY   72  70  94 SE5       30.04R FOG

$$

LAZ041-044-053-054-041500-
SOUTHWEST LOUISIANA

CITY           SKY/WX    TMP DP  RH WIND       PRES   REMARKS
LAKE CHARLES   CLOUDY    67  66  97 S3        29.93R
LAFAYETTE      CLOUDY    67  66  97 SE5       29.96R FOG
PATTERSON      CLOUDY    66  66 100 SE6       29.98R VSB 1/4
SALT POINT       N/A     66  66 100 SE6       29.97R
NEW IBERIA     PTSUNNY   68  67  96 S9        29.97R
CHENAULT AIRPK PTSUNNY   66  66 100 CALM      29.94R FOG

$$

LAZ027-028-041500-
CENTRAL LOUISIANA

CITY           SKY/WX    TMP DP  RH WIND       PRES   REMARKS
FORT POLK      CLOUDY    69  66  93 S8        29.93R
ALEXANDRIA INT CLOUDY    66  66 100 SE6       29.94R FOG
ALEXANDRIA     CLOUDY    70  67  90 S7        29.95R

$$

LAZ001-002-041500-
NORTHWEST LOUISIANA

CITY           SKY/WX    TMP DP  RH WIND       PRES   REMARKS
SHREVEPORT     FOG       66  65  96 S5        29.88R VSB 1
BARKSDALE AFB  FOG       64  64 100 S7        29.88S VSB 1/2
DTN SHREVEPORT CLOUDY    64  63  96 S7        29.88S FOG

$$

LAZ014-016-041500-
NORTHEAST LOUISIANA

CITY           SKY/WX    TMP DP  RH WIND       PRES   REMARKS
MONROE         CLOUDY    67  66  97 S7        29.93R
TALLULAH       PTSUNNY   67  65  93 S7        29.95R FOG

$$




USA.gov is the U.S. government's official web portal to all federal, state and local government web resources and services.